GEFSSGP_850_meantemp_054.txt.gz
Temperature
22 21 20 20 19 19 20 20 21 21 21 22 22 21 20 19 20 20 20 21 21 21 20 20 20 20 20 20 20 20 20 20 20 20 20 19 19 19 19 19 19 19 19 19 19 19 19 19 19
22 21 20 20 19 20 20 20 21 21 22 22 22 21 20 19 19 20 20 20 20 20 20 20 20 20 20 20 20 20 20 20 20 19 19 19 19 19 19 19 19 19 19 19 19 19 19 19 19
22 21 21 19 20 20 21 21 21 22 22 22 21 20 19 19 19 20 20 20 20 20 20 20 20 20 20 20 20 20 20 20 20 19 19 19 19 19 19 19 19 19 19 19 19 19 18 18 18
22 22 22 19 20 20 20 20 21 22 22 21 21 20 19 18 19 20 20 20 20 20 20 20 20 20 20 20 20 20 19 20 19 19 19 19 19 19 19 19 19 19 19 19 19 19 18 18 18
23 22 20 20 20 20 19 20 21 20 20 20 20 19 18 18 19 20 20 20 19 19 19 19 19 19 19 19 19 19 19 19 19 19 19 19 19 19 19 19 19 19 19 19 19 19 18 18 18
23 21 20 20 20 19 19 19 20 19 19 19 19 18 18 18 19 19 19 19 19 19 19 19 18 19 19 19 19 19 19 19 19 19 19 19 19 19 19 19 19 19 19 19 19 19 18 18 18
23 20 20 20 20 20 19 19 18 18 18 18 18 18 18 18 18 19 19 19 18 18 18 18 18 18 18 18 18 18 19 19 19 19 19 19 19 19 19 19 19 19 19 19 19 19 18 18 18
24 19 20 20 20 20 19 19 18 18 18 18 18 17 17 17 18 18 18 18 18 18 18 18 18 18 18 18 18 18 18 18 18 18 18 18 19 19 19 19 19 19 19 19 19 19 18 18 18
24 19 20 20 20 19 18 19 18 18 18 17 17 17 17 17 17 18 18 18 17 17 17 17 18 18 18 18 18 18 18 18 18 18 18 18 18 18 18 18 19 19 19 19 18 18 18 18 18
23 20 21 20 19 18 18 18 18 18 17 17 17 17 17 17 17 18 17 17 17 17 17 17 17 17 17 17 18 18 18 18 18 18 18 18 18 18 18 18 18 18 18 18 18 18 18 18 18
22 20 20 19 19 18 18 18 18 18 16 17 17 17 17 17 17 17 17 17 17 17 17 17 17 17 17 17 17 18 18 18 18 17 18 18 18 18 18 18 18 18 18 18 18 18 18 18 18
20 19 20 19 19 19 18 18 17 17 17 17 17 17 17 17 17 16 16 16 16 16 16 16 16 17 17 17 17 17 17 17 17 17 17 17 17 17 18 18 18 18 18 18 18 18 18 18 18
20 19 19 19 19 18 18 17 17 17 17 17 17 17 17 17 16 16 16 16 16 16 16 16 16 16 16 16 16 16 16 17 17 17 17 17 17 17 17 17 17 18 18 18 18 18 18 18 18
19 19 18 19 19 18 17 17 17 16 17 17 17 17 16 16 16 16 16 16 15 15 15 15 15 15 15 15 15 16 16 16 16 16 17 17 17 17 17 17 17 17 18 18 18 18 18 18 18
20 18 18 18 18 18 18 17 16 16 17 16 16 16 16 16 16 15 15 15 15 14 14 14 15 15 15 15 15 15 15 16 16 16 16 16 17 17 17 17 17 17 17 17 18 18 18 18 18
20 18 18 18 18 18 18 17 16 16 17 16 16 16 16 15 15 15 15 14 14 14 14 14 14 14 14 14 14 14 15 15 15 15 16 16 16 16 17 17 17 17 17 17 17 17 17 18 18
19 19 19 18 18 18 17 16 16 16 16 15 15 15 15 15 15 15 14 14 14 13 13 13 13 14 14 14 14 14 14 14 14 15 15 15 16 16 16 16 17 17 17 17 17 17 17 17 17
20 20 19 18 18 17 16 16 15 16 16 15 15 15 15 15 15 14 14 14 13 13 13 13 13 13 13 13 14 14 14 14 14 14 14 15 15 15 16 16 16 16 17 17 17 17 17 17 17
21 20 19 18 18 17 16 15 15 15 15 15 15 15 15 15 14 14 14 13 13 13 13 13 13 13 13 13 13 13 14 14 14 14 14 14 14 15 15 15 16 16 16 16 16 16 16 17 17
19 18 18 18 17 16 15 15 15 15 15 15 15 15 15 15 14 14 14 13 13 13 13 12 12 13 13 13 13 13 13 13 13 13 13 14 14 14 15 15 15 15 15 16 16 16 16 16 16
19 18 18 18 16 15 15 15 15 15 15 15 15 15 15 15 14 14 14 13 13 13 12 12 12 12 12 12 12 13 13 13 13 13 13 13 13 14 14 14 15 15 15 15 16 16 16 16 16
19 19 19 18 16 15 16 14 14 13 14 14 15 15 15 15 14 14 14 13 13 13 12 12 12 12 12 12 12 12 12 12 12 12 13 13 13 13 14 14 14 14 15 15 15 15 15 16 16
19 18 18 17 16 15 15 14 14 13 13 13 14 15 15 15 15 14 14 13 13 13 12 12 12 12 12 12 12 12 12 12 12 12 12 13 13 13 13 13 14 14 14 14 15 15 15 15 15
18 16 15 13 14 15 15 14 14 12 13 13 14 15 15 15 15 14 14 14 13 13 12 12 12 12 12 12 12 12 12 12 12 12 12 13 13 13 13 13 13 13 14 14 14 15 15 15 15
16 15 14 15 14 14 15 14 14 15 13 14 14 15 15 15 15 15 14 14 14 13 13 12 12 12 11 11 11 12 11 11 12 12 12 12 12 12 13 13 13 13 13 14 14 14 15 15 15
16 15 15 16 15 14 15 14 14 15 15 15 15 15 15 15 15 15 15 14 14 13 13 12 12 12 11 11 11 11 11 11 11 11 11 12 12 12 12 12 13 13 13 13 14 14 14 14 15
17 14 14 13 14 14 14 14 14 15 14 14 15 15 15 15 15 15 15 14 14 14 13 12 12 12 11 11 11 11 11 11 11 11 11 11 12 12 12 12 12 13 13 13 13 13 14 14 14
17 13 12 13 14 14 14 14 14 15 14 13 13 14 15 15 15 15 15 15 14 14 13 13 12 12 12 11 11 11 11 11 11 11 11 11 11 11 12 12 12 12 12 13 13 13 13 14 14
16 14 12 11 12 13 14 14 14 15 14 13 14 15 16 16 16 16 15 15 15 14 14 13 13 12 12 12 11 11 11 11 11 11 11 11 11 11 11 12 12 12 12 12 13 13 13 13 13
17 16 12 14 13 11 12 13 15 14 14 15 15 16 16 16 16 16 15 15 15 15 14 14 13 13 12 12 11 11 11 11 11 11 11 11 11 11 11 11 12 12 12 12 12 12 13 13 13

GEFSSGP_850_meantemp_060.txt.gz
Temperature
21 20 20 20 24 27 26 25 26 26 26 25 24 24 24 23 23 22 19 18 18 19 18 19 19 19 19 19 19 19 19 19 19 19 19 19 19 19 19 19 19 19 19 19 19 19 19 19 19
20 20 20 22 27 26 25 25 25 25 25 24 24 24 24 22 20 19 18 18 18 18 18 18 19 19 19 19 19 19 19 19 19 19 19 19 19 19 19 19 19 19 19 19 19 19 19 19 19
21 20 22 26 27 25 24 25 25 25 24 24 24 23 22 20 18 18 18 18 18 18 18 18 19 19 19 18 18 18 18 19 19 19 19 19 19 19 19 19 19 19 19 19 19 19 19 19 19
21 21 24 27 25 24 24 25 25 25 24 24 24 22 20 17 17 18 18 18 18 18 18 18 18 18 18 18 18 18 18 18 18 18 18 19 19 19 19 18 19 19 19 18 18 18 18 18 18
21 24 26 26 25 24 24 24 24 25 24 23 24 22 19 17 17 18 18 18 18 18 18 18 18 18 18 18 18 18 18 18 18 18 18 18 18 18 18 18 18 18 18 18 18 18 18 18 18
23 26 26 25 24 24 24 23 24 24 23 23 23 22 18 17 17 18 18 18 18 18 18 18 18 18 18 18 18 18 18 18 18 18 18 18 18 18 18 18 18 18 18 18 18 18 18 18 18
25 27 26 26 25 24 24 23 23 24 23 22 22 21 19 17 17 17 18 18 18 18 18 18 18 18 18 18 18 18 18 18 18 18 18 18 18 18 18 18 18 18 18 18 18 18 18 18 18
24 27 26 26 25 24 23 22 22 22 22 20 20 21 19 17 17 17 18 18 18 18 18 18 17 18 17 17 17 17 17 17 17 18 18 18 18 18 18 18 18 18 18 18 18 18 18 18 18
24 27 26 26 25 25 23 23 21 21 21 20 19 18 17 17 17 17 17 17 17 17 17 17 17 17 17 17 17 17 17 17 17 17 17 17 17 17 17 17 17 18 18 18 18 18 18 18 18
26 27 26 25 25 25 23 23 22 22 21 20 19 18 17 17 17 18 17 17 17 17 16 16 16 16 16 17 17 17 17 17 17 17 17 17 17 17 17 17 17 17 18 18 18 18 18 18 17
26 26 25 24 23 23 23 22 21 22 22 20 19 18 18 17 17 17 17 17 16 16 16 16 16 16 15 16 16 16 16 16 17 17 17 17 17 17 17 17 17 17 17 17 17 17 17 17 17
25 24 24 23 22 22 22 22 21 21 20 19 18 18 18 18 17 17 17 16 16 15 15 15 15 15 15 15 15 15 15 16 16 16 16 17 17 17 17 17 17 17 17 17 17 17 17 17 18
25 23 22 22 21 22 21 21 20 19 18 18 17 17 17 17 17 16 16 16 16 15 15 14 14 14 14 14 14 15 15 15 15 16 16 16 16 17 17 17 17 17 17 17 17 17 17 17 18
24 23 22 22 22 21 22 21 21 19 18 18 18 18 17 17 16 16 16 16 15 15 14 14 14 13 13 14 14 14 14 15 15 15 15 15 16 16 17 17 17 17 17 17 17 17 17 17 17
23 24 23 22 22 21 22 22 21 19 18 18 18 18 17 17 16 16 16 15 15 14 14 13 13 13 13 13 13 14 14 14 14 14 15 15 15 15 16 16 16 17 17 17 17 17 17 17 17
24 25 24 23 22 21 22 23 21 19 19 19 19 18 17 17 17 16 15 15 14 14 14 13 13 13 13 13 13 13 13 13 14 14 14 14 14 15 15 16 16 16 16 17 17 17 17 17 17
25 26 26 24 23 22 22 23 21 19 19 19 19 19 18 18 17 16 15 15 14 13 13 13 13 12 12 13 13 13 13 13 13 13 14 14 14 14 15 15 15 16 16 16 16 17 17 17 17
26 26 26 25 23 23 23 23 21 19 19 20 19 19 18 18 17 16 15 14 14 13 13 13 13 12 12 12 13 13 13 13 13 13 13 14 14 14 14 14 15 15 15 16 16 16 16 17 17
27 26 26 24 23 22 23 23 22 20 19 20 19 19 19 18 17 16 15 14 14 13 13 13 13 12 12 12 12 12 13 13 13 13 13 13 13 13 14 14 14 14 15 15 15 16 16 16 16
26 26 25 23 22 22 23 23 23 21 20 20 20 19 19 18 17 16 15 15 14 13 13 13 13 12 12 12 12 12 12 12 12 12 13 13 13 13 13 13 14 14 14 15 15 15 16 16 16
25 25 24 23 22 22 22 23 22 21 20 19 19 19 18 17 17 16 16 15 14 14 13 13 12 12 12 12 12 12 12 12 12 12 12 13 13 13 13 13 13 14 14 14 15 15 15 15 15
24 23 23 22 23 23 22 23 23 22 21 20 19 19 18 17 17 16 15 15 14 14 13 13 12 12 12 11 12 12 12 12 12 12 12 12 12 13 13 13 13 13 14 14 14 14 15 15 15
23 22 23 22 23 23 23 23 24 22 22 22 20 19 18 17 16 16 15 14 14 13 13 12 12 12 11 11 11 11 12 11 12 12 12 12 12 12 12 13 13 13 13 14 14 14 14 14 14
22 22 22 22 23 23 23 23 23 23 22 22 20 19 18 17 16 16 15 14 14 13 13 12 12 12 11 11 11 11 11 11 11 11 12 12 12 12 12 12 13 13 13 13 13 14 14 14 14
23 23 23 23 23 23 22 22 23 23 22 21 20 19 18 17 17 16 15 15 14 14 13 13 12 12 12 11 11 11 11 11 11 11 11 11 11 12 12 12 12 13 13 13 13 14 14 14 14
23 24 23 23 23 23 22 22 24 22 20 19 19 19 18 17 17 16 15 15 14 14 13 13 12 12 12 11 11 11 11 11 11 11 11 11 11 11 11 12 12 12 12 13 13 13 13 13 14
23 23 23 23 23 23 24 23 23 21 21 20 19 18 18 17 17 16 16 15 15 14 14 13 13 12 12 12 11 11 11 11 11 11 11 11 11 11 11 11 11 12 12 12 12 13 13 13 13
22 22 22 22 22 23 23 23 23 23 22 22 20 19 18 17 17 16 16 15 15 14 14 14 13 13 12 12 12 11 11 11 11 10 10 11 11 11 11 11 11 11 12 12 12 12 13 13 13
21 21 22 22 22 22 23 24 23 23 22 22 21 19 18 18 17 16 16 15 15 15 14 14 13 13 13 12 12 11 11 11 10 10 10 10 10 11 11 11 11 11 11 11 12 12 12 12 13
22 22 22 22 22 21 22 23 23 22 21 20 20 19 18 17 17 16 16 15 15 15 15 14 14 13 13 12 12 11 11 11 11 10 10 10 10 10 10 10 10 11 11 11 11 12 12 12 12

GEFSSGP_850_meantemp_066.txt.gz
Temperature
21 20 20 20 20 22 23 25 26 26 27 27 27 26 24 23 22 20 19 20 20 19 19 20 19 19 19 19 19 19 19 19 19 19 19 19 19 19 19 19 19 19 19 19 19 19 19 19 19
21 20 20 21 21 22 23 25 25 27 27 27 26 25 23 22 21 20 19 20 20 19 19 19 19 19 19 19 19 19 19 18 18 18 18 18 18 18 18 18 19 19 19 19 19 19 19 19 19
21 21 21 22 23 23 24 25 26 27 27 27 26 23 22 20 19 19 19 19 19 19 19 19 19 19 19 19 19 19 19 18 18 18 18 18 18 18 18 18 18 18 18 18 18 18 18 18 18
21 21 22 22 24 25 26 26 27 27 27 26 25 23 20 19 19 19 19 19 19 19 19 19 19 19 19 19 19 19 19 19 19 18 18 18 18 18 18 18 18 18 18 18 18 18 18 18 18
21 22 22 23 25 26 27 27 27 27 27 26 25 22 20 19 19 19 19 19 19 19 19 19 19 19 19 19 19 19 19 19 18 18 18 18 18 18 18 18 18 18 18 18 18 18 18 18 18
22 24 23 23 25 26 27 27 27 26 26 26 25 22 20 19 19 19 19 19 19 19 19 19 19 19 19 18 18 18 18 18 18 18 18 18 18 18 18 18 18 18 18 18 18 18 18 18 18
23 24 25 25 25 26 27 27 27 26 26 25 24 22 20 19 19 19 19 19 19 19 19 18 18 18 18 18 18 18 18 18 18 18 18 18 18 18 18 18 18 18 18 18 18 18 18 18 18
25 25 24 24 25 26 27 27 26 26 25 24 24 22 21 20 20 20 20 19 19 19 19 18 18 18 18 18 18 18 18 18 18 18 18 18 18 18 18 18 18 18 18 18 18 18 18 18 18
26 25 22 24 26 26 27 27 26 25 24 23 22 21 21 20 20 20 20 19 19 19 18 18 18 18 18 17 17 17 17 17 18 18 18 18 18 18 18 18 18 18 18 18 18 18 18 18 18
27 25 23 25 28 27 27 27 26 25 24 23 22 21 21 21 21 21 20 20 19 18 18 18 17 17 17 17 17 17 17 17 17 17 17 17 17 17 17 17 18 18 18 18 18 18 18 18 18
27 26 26 27 28 27 27 26 26 26 24 23 22 22 21 21 21 20 20 19 19 18 17 17 17 17 17 17 16 16 16 16 16 17 17 17 17 17 17 17 17 17 18 18 18 18 18 18 18
28 28 28 28 27 27 27 26 26 25 24 23 22 22 21 21 21 20 20 19 19 18 17 17 16 16 16 16 16 16 16 16 16 16 16 16 16 17 17 17 17 17 17 17 17 17 18 18 18
27 27 27 27 26 27 26 26 25 24 23 22 22 22 21 21 20 20 20 19 18 18 17 16 16 15 15 15 15 15 16 16 16 16 16 16 16 16 16 17 17 17 17 17 17 17 18 18 18
25 26 27 27 26 26 26 25 25 23 23 22 22 22 21 21 20 20 19 19 18 17 17 16 15 15 15 15 15 15 15 15 15 15 16 16 16 16 16 16 16 17 17 17 17 17 17 18 18
28 28 27 27 26 26 26 25 25 23 23 23 23 22 21 21 20 20 19 18 18 17 16 16 16 15 15 14 14 14 15 15 15 15 15 15 15 16 16 16 16 16 16 17 17 17 17 17 17
28 27 25 25 25 25 25 24 25 23 23 23 23 23 22 21 21 20 19 18 17 16 16 16 15 15 14 14 14 14 14 14 14 14 15 15 15 15 15 15 16 16 16 16 16 17 17 17 17
26 24 24 24 25 26 25 25 24 23 23 23 23 23 22 22 21 20 19 18 17 16 16 16 15 14 14 14 14 14 14 14 14 14 14 14 15 15 15 15 15 15 16 16 16 16 16 17 17
24 23 24 25 26 26 26 26 25 24 24 24 24 23 23 22 21 20 18 18 17 16 16 16 15 15 14 14 14 14 14 14 14 14 14 14 14 14 14 14 15 15 15 15 16 16 16 16 16
25 26 27 27 27 26 26 26 26 25 24 24 24 24 23 22 21 20 19 18 17 16 16 16 15 14 14 14 13 13 13 13 14 13 13 14 14 14 14 14 14 14 15 15 15 15 16 16 16
26 27 28 28 27 26 26 27 27 26 25 24 24 24 23 22 21 20 19 18 17 16 16 15 15 14 14 13 13 13 13 13 13 13 13 13 13 13 14 14 14 14 14 14 15 15 15 15 16
27 27 27 26 27 27 26 25 26 26 25 25 24 23 23 22 21 20 19 18 17 16 15 15 14 14 14 13 13 13 13 13 13 13 13 13 13 13 13 13 14 14 14 14 14 14 15 15 15
27 27 27 26 25 26 26 24 25 26 25 25 24 23 22 22 20 19 18 17 17 16 15 14 14 14 13 13 13 13 13 12 13 13 13 13 13 13 13 13 13 13 14 14 14 14 14 14 15
27 26 26 26 25 25 26 25 26 25 24 24 24 23 22 21 20 19 18 17 16 16 15 14 14 13 13 13 13 13 12 12 12 12 12 12 13 13 13 13 13 13 13 13 14 14 14 14 14
26 26 26 26 25 24 26 26 25 25 25 25 24 23 22 21 20 19 18 17 16 16 15 15 14 14 13 13 13 13 13 12 12 12 12 12 12 12 12 13 13 13 13 13 13 13 14 14 14
26 25 25 24 24 25 27 26 25 24 25 24 24 23 22 21 20 19 18 17 17 16 15 15 14 14 13 13 13 13 13 13 13 12 12 12 12 12 12 12 12 12 12 13 13 13 13 14 14
27 26 24 24 25 26 26 26 24 25 24 24 23 23 22 21 20 19 18 17 17 16 16 15 14 14 14 13 13 13 13 13 12 12 12 12 12 12 12 12 12 12 12 12 13 13 13 13 13
26 26 27 25 25 26 26 26 24 25 24 24 23 23 22 21 20 19 18 18 17 16 16 15 15 14 14 14 13 13 13 13 12 12 12 12 12 12 12 12 12 12 12 12 12 12 13 13 13
26 25 25 25 24 25 26 26 24 24 24 24 24 23 22 21 20 19 19 18 17 17 16 16 15 15 14 14 14 13 13 13 12 12 12 12 12 12 12 12 12 12 12 12 12 12 12 12 13
25 25 25 25 25 24 24 24 25 24 24 24 24 23 22 21 20 20 19 18 17 17 16 16 16 15 15 14 14 13 13 13 12 12 12 12 12 12 12 12 12 12 12 12 12 12 12 12 12
26 26 25 24 25 25 23 23 25 24 24 24 23 23 22 21 20 19 19 18 18 17 17 16 16 15 15 14 14 13 13 13 13 12 12 12 12 12 12 12 11 11 11 11 11 11 12 12 12

GEFSSGP_850_meantemp_072.txt.gz
Temperature
20 20 20 19 18 19 20 21 22 23 22 22 22 21 20 19 19 18 18 19 19 19 19 19 19 19 19 20 20 20 20 20 20 20 20 20 19 19 19 19 19 19 19 19 19 19 19 19 19
20 20 20 19 18 19 21 21 22 23 23 22 21 20 20 19 19 18 18 18 19 19 19 19 19 19 19 19 19 20 20 20 20 20 20 19 19 19 19 19 19 19 19 19 19 19 19 19 19
20 20 20 18 19 20 21 22 22 24 23 22 20 19 19 19 19 18 18 19 19 19 19 19 19 19 19 19 19 19 19 19 19 19 19 19 19 19 19 19 19 19 19 19 19 19 19 19 19
21 20 20 19 20 20 21 22 22 23 23 22 20 19 18 19 19 19 19 19 19 19 19 19 19 19 19 19 19 19 19 19 19 19 19 19 19 19 19 19 19 19 19 19 19 19 19 19 19
21 21 19 20 20 21 21 22 23 23 22 21 20 18 18 19 19 19 19 19 19 19 18 18 18 18 18 18 18 18 18 18 18 18 18 19 19 19 19 19 19 19 19 19 19 19 19 19 19
22 20 19 20 21 21 22 23 23 22 22 21 20 18 18 19 19 19 19 19 19 18 18 18 18 18 18 18 17 17 17 18 18 18 18 18 18 18 18 18 18 18 18 18 18 19 18 19 19
21 19 20 20 21 21 22 23 23 22 22 21 20 18 18 19 19 19 19 19 19 18 18 18 18 17 17 17 17 17 17 17 17 17 17 17 17 18 18 18 18 18 18 18 18 19 19 19 19
22 19 20 20 21 21 23 23 23 23 22 21 21 19 19 19 19 19 19 19 18 18 18 18 17 17 17 16 16 16 16 16 16 16 17 17 17 17 17 18 18 18 18 18 18 18 19 19 18
22 19 20 20 21 21 23 23 23 22 22 21 21 21 20 20 19 19 19 18 18 18 17 17 17 17 16 16 16 16 16 16 16 16 16 16 16 17 17 17 17 18 18 18 18 18 18 18 18
21 19 20 21 21 21 23 23 22 21 21 20 20 20 20 19 19 19 19 18 18 18 17 17 16 16 16 16 16 16 16 16 16 15 16 16 16 16 16 17 17 17 17 17 18 18 18 18 18
20 19 20 21 22 22 23 23 23 21 20 20 20 20 20 20 19 19 19 18 18 17 17 17 16 16 16 15 15 15 15 15 15 15 15 15 15 16 16 16 16 17 17 17 17 17 18 18 18
19 19 20 20 22 23 23 23 22 22 21 21 21 21 20 20 19 19 19 18 18 17 17 16 16 15 15 15 15 15 15 15 15 15 15 15 15 15 15 16 16 16 16 17 17 17 17 18 18
19 19 20 21 22 23 23 22 22 21 22 21 21 21 20 20 19 19 19 18 18 17 16 16 15 15 15 15 15 15 15 15 15 15 15 15 15 15 15 15 16 16 16 16 16 17 17 17 18
19 19 19 21 21 22 22 21 21 21 21 21 21 21 20 20 19 19 18 18 17 17 16 16 15 15 15 14 14 14 14 14 14 15 15 15 15 15 15 15 15 15 16 16 16 16 17 17 17
19 19 19 20 20 21 22 21 21 21 21 21 21 21 20 20 19 19 18 18 17 17 16 15 15 15 14 14 14 14 14 14 14 14 14 14 15 15 15 15 15 15 15 16 16 16 16 16 17
19 19 19 20 20 21 21 20 21 22 22 21 21 21 20 20 19 19 18 18 17 16 16 15 15 14 14 14 14 14 14 14 14 14 14 14 14 14 15 15 15 15 15 15 15 16 16 16 16
19 19 19 20 20 20 20 20 20 21 22 21 21 21 20 19 19 18 18 17 17 16 16 15 15 14 14 14 14 14 14 14 14 14 14 14 14 14 14 14 14 15 15 15 15 15 16 16 16
19 19 20 20 21 20 20 20 20 21 21 21 21 20 20 19 19 18 18 17 17 16 16 15 14 14 14 14 14 13 13 13 13 13 13 13 14 14 14 14 14 14 14 15 15 15 15 15 16
21 20 20 21 22 21 20 20 19 20 21 21 20 20 20 19 18 18 17 17 16 16 15 15 14 14 14 13 13 13 13 13 13 13 13 13 13 13 14 14 14 14 14 14 14 15 15 15 15
21 21 21 22 23 22 21 21 20 20 20 21 21 20 20 19 18 18 17 17 16 16 15 15 14 14 13 13 13 13 13 13 13 13 13 13 13 13 13 13 13 14 14 14 14 14 15 15 15
21 21 22 22 23 22 22 20 20 20 21 21 21 21 20 19 18 18 17 17 16 16 15 15 14 14 13 13 13 13 13 13 13 13 13 12 12 13 13 13 13 13 13 13 14 14 14 14 14
21 22 23 23 20 19 21 19 19 19 19 19 20 20 20 19 19 18 18 17 16 16 15 15 14 13 13 13 13 13 13 12 12 12 12 12 12 12 12 13 13 13 13 13 13 13 13 14 14
22 23 23 22 21 19 19 19 18 19 19 19 19 20 20 19 19 18 18 17 17 16 15 15 14 14 13 13 13 13 13 12 12 12 12 12 12 12 12 12 12 13 13 13 13 13 13 13 14
23 21 20 17 17 18 19 18 19 17 18 19 19 20 20 19 19 18 18 17 17 16 15 15 14 14 13 13 13 13 13 12 12 12 12 12 12 12 12 12 12 12 12 12 13 13 13 13 13
21 18 18 18 17 17 19 19 18 19 19 19 19 20 20 20 19 18 18 17 17 16 16 15 15 14 14 13 13 13 13 13 12 12 12 12 12 12 12 12 12 12 12 12 12 12 13 13 13
21 18 18 19 18 18 20 19 19 20 20 21 21 21 20 20 19 19 18 18 17 16 16 15 15 14 14 14 13 13 13 13 12 12 12 12 12 12 12 12 12 12 12 12 12 12 12 12 12
21 19 18 17 18 18 18 19 20 20 19 19 20 20 20 20 19 19 18 18 17 17 16 16 15 15 14 14 14 13 13 13 12 12 12 12 12 12 12 12 11 12 12 12 12 12 12 12 12
21 19 16 18 18 18 19 19 17 19 19 19 18 19 20 20 19 19 18 18 17 17 16 16 15 15 15 14 14 13 13 13 13 12 12 12 12 12 12 11 11 11 11 11 11 12 12 12 12
22 21 17 15 16 17 18 18 18 18 18 18 18 20 20 20 20 19 19 18 17 17 16 16 16 15 15 14 14 14 13 13 13 12 12 12 12 12 11 11 11 11 11 11 11 11 11 11 12
21 21 17 18 18 16 16 17 19 18 19 19 20 21 21 20 20 19 19 18 17 17 17 16 16 16 15 15 14 14 13 13 13 12 12 12 12 11 11 11 11 11 11 11 11 11 11 11 11

GEFSSGP_850_meantemp_078.txt.gz
Temperature
19 19 19 19 18 18 19 20 20 20 20 19 19 19 18 18 18 18 18 19 19 18 18 18 18 18 18 18 18 19 19 19 19 19 19 19 19 19 19 19 19 19 19 19 19 19 19 19 19
19 19 19 19 18 19 20 20 20 20 20 20 19 19 18 18 18 18 18 18 18 18 18 18 18 18 18 18 18 18 18 18 18 18 18 18 18 18 19 19 19 19 19 19 19 19 19 19 18
19 19 19 17 18 19 20 20 20 20 20 20 19 18 18 18 18 18 19 18 18 18 18 18 18 18 18 18 18 18 18 18 18 18 18 18 18 18 18 18 18 19 19 19 19 19 19 18 18
19 19 18 18 19 20 20 20 20 20 20 20 19 18 18 18 18 18 18 18 18 18 18 18 18 18 18 17 17 17 17 17 17 17 17 17 18 18 18 18 18 18 18 18 18 18 18 18 18
19 19 18 19 19 20 20 20 20 20 20 19 19 18 18 18 18 18 18 18 18 18 18 18 18 18 17 17 17 17 17 17 17 17 17 17 17 17 17 17 18 18 18 18 18 18 18 18 18
19 18 18 19 20 20 20 20 20 20 19 19 19 18 18 18 18 18 18 18 18 18 18 18 17 17 17 17 17 17 17 17 17 17 17 17 17 17 17 17 17 18 18 18 18 18 18 18 18
19 17 19 19 19 20 21 20 20 20 19 19 19 18 18 18 18 18 18 18 18 18 18 17 17 17 17 17 17 16 16 16 16 16 17 17 17 17 17 17 17 17 17 17 17 18 18 18 18
20 18 19 19 19 20 21 21 21 20 20 20 20 18 18 19 18 18 18 18 18 18 17 17 17 16 16 16 16 16 16 16 16 16 16 16 16 17 17 17 17 17 17 17 17 17 17 18 18
20 18 19 19 19 20 20 20 20 21 20 20 20 20 20 19 18 18 18 18 18 18 17 17 16 16 16 16 15 15 15 15 15 16 16 16 16 16 16 17 17 17 17 17 17 17 17 17 17
19 18 20 19 19 19 20 20 20 20 20 19 19 19 19 19 19 19 18 18 18 17 17 16 16 15 15 15 15 15 15 15 15 15 15 15 16 16 16 16 16 16 17 17 17 17 17 17 17
19 19 19 19 20 20 20 20 21 20 19 20 20 20 19 19 19 19 18 18 18 17 17 16 15 15 15 15 14 14 14 15 15 15 15 15 15 15 16 16 16 16 16 16 16 17 17 17 17
18 19 19 19 20 20 20 20 20 20 21 22 21 20 20 19 19 19 18 18 17 17 16 16 15 15 14 14 14 14 14 14 14 14 15 15 15 15 15 15 15 16 16 16 16 16 16 17 17
18 19 19 19 20 20 20 20 20 20 21 21 21 20 20 19 19 19 18 18 17 17 16 15 15 15 14 14 14 14 14 14 14 14 14 14 15 15 15 15 15 15 15 16 16 16 16 16 17
18 18 19 19 20 20 20 20 20 21 21 21 20 20 20 19 19 19 18 18 17 16 16 15 15 14 14 14 14 14 14 14 14 14 14 14 14 14 15 15 15 15 15 15 16 16 16 16 16
18 18 19 19 19 20 20 19 19 21 21 20 20 20 20 19 19 19 18 18 17 16 16 15 14 14 14 14 14 13 13 13 13 13 13 14 14 14 14 14 15 15 15 15 15 15 16 16 16
18 18 19 19 19 19 20 19 20 21 20 19 20 19 19 19 19 18 18 17 17 16 15 15 14 14 14 14 13 13 13 13 13 13 13 13 13 14 14 14 14 14 15 15 15 15 15 15 16
18 18 19 19 19 19 19 19 20 20 20 19 19 19 19 19 18 18 18 17 17 16 15 15 14 14 14 13 13 13 13 13 13 13 13 13 13 13 13 13 14 14 14 14 14 15 15 15 15
18 18 19 19 19 19 18 18 19 19 19 19 19 19 19 19 19 18 17 17 16 16 15 14 14 13 13 13 13 13 13 13 13 13 13 13 13 13 13 13 13 13 14 14 14 14 15 15 15
19 19 19 20 20 19 18 18 19 19 18 18 18 18 19 19 18 18 17 17 16 16 15 14 14 13 13 13 13 13 12 12 12 12 12 12 12 13 13 13 13 13 13 13 14 14 14 14 15
19 19 20 20 20 19 18 18 18 18 18 18 18 18 19 19 18 18 17 17 16 15 15 14 14 13 13 13 12 12 12 12 12 12 12 12 12 12 12 12 13 13 13 13 13 13 14 14 14
19 19 20 20 20 19 19 19 18 18 18 18 19 19 19 19 19 18 17 17 16 15 15 14 14 13 13 13 12 12 12 12 12 12 12 12 12 12 12 12 12 12 12 13 13 13 13 13 14
19 20 20 20 19 18 19 17 18 17 17 17 18 18 19 19 19 18 17 17 16 16 15 14 14 13 13 13 12 12 12 12 12 12 12 12 12 12 12 12 12 12 12 12 12 13 13 13 13
20 20 19 19 19 17 17 17 17 17 17 17 17 18 19 19 19 18 18 17 16 15 15 14 14 13 13 13 13 12 12 12 12 12 12 12 12 12 12 12 12 12 12 12 12 12 12 13 13
19 18 17 15 16 17 18 17 17 16 17 17 17 18 19 19 19 18 18 17 16 15 15 14 14 13 13 13 13 12 12 12 12 12 12 12 11 12 12 12 12 12 12 12 12 12 12 12 12
19 18 17 18 16 16 17 17 16 17 17 17 17 19 20 20 19 18 18 17 16 16 15 15 14 14 13 13 13 13 12 12 12 12 12 12 11 11 11 11 11 11 11 12 12 12 12 12 12
19 18 17 18 17 16 17 16 17 18 18 19 19 20 20 19 19 19 18 17 17 16 15 15 14 14 14 13 13 13 12 12 12 12 12 12 11 11 11 11 11 11 11 11 11 12 12 12 12
18 17 17 15 16 16 16 16 17 18 18 18 18 18 19 20 19 19 18 18 17 16 16 15 15 14 14 14 13 13 13 12 12 12 12 12 11 11 11 11 11 11 11 11 11 11 11 11 11
18 15 14 15 16 17 16 17 17 18 18 18 16 17 19 20 19 19 18 18 17 16 16 15 15 15 14 14 14 13 13 12 12 12 12 12 11 11 11 11 11 11 11 11 11 11 11 11 11
18 17 14 13 14 15 16 16 17 17 17 17 17 19 20 20 20 19 19 18 17 16 16 16 15 15 15 14 14 13 13 13 12 12 12 12 12 11 11 11 11 11 11 11 11 11 11 11 11
19 17 15 16 16 13 14 15 17 16 16 17 18 20 21 21 20 20 19 18 17 17 16 16 15 15 15 14 14 14 13 13 13 13 12 12 12 12 11 11 11 11 11 11 11 11 11 11 11

GEFSSGP_850_meantemp_084.txt.gz
Temperature
19 19 19 19 20 22 23 24 25 24 25 24 23 24 24 23 23 21 18 18 18 18 18 18 18 18 18 18 18 18 18 18 18 18 18 18 18 18 18 18 18 18 18 19 19 19 19 19 18
19 19 19 20 22 23 24 24 24 25 24 23 23 23 23 22 21 20 18 18 18 18 18 17 18 18 18 18 18 18 18 18 18 18 18 18 18 18 18 18 18 18 18 18 18 18 18 18 18
19 19 19 21 23 24 24 24 25 24 23 23 23 23 23 21 20 19 18 18 18 18 18 18 18 18 18 18 18 18 18 18 18 18 18 18 18 18 18 18 18 18 18 18 18 18 18 18 18
19 19 20 23 23 24 24 24 25 24 23 23 23 23 21 19 19 19 18 18 18 18 18 17 18 18 18 17 18 18 18 18 17 17 17 17 17 18 18 18 18 18 18 18 18 18 18 18 18
19 21 23 23 24 24 24 24 24 24 24 24 24 23 21 19 19 18 18 18 18 18 18 17 18 18 17 17 17 17 17 17 17 17 17 17 17 17 17 17 17 18 18 18 18 17 18 18 18
20 22 23 23 24 24 24 24 24 24 24 23 23 23 21 19 18 18 18 18 18 18 17 17 17 17 17 17 17 17 17 17 17 17 17 17 17 17 17 17 17 17 17 17 17 17 17 17 17
21 23 23 24 24 24 24 23 24 24 24 24 23 23 21 19 18 18 18 18 18 17 17 17 17 16 17 16 16 16 16 16 16 16 16 16 17 17 17 17 17 17 17 17 17 17 17 17 17
21 23 23 24 24 24 24 23 23 24 24 22 22 23 22 20 18 18 18 18 18 17 17 17 16 16 16 16 16 16 16 16 16 16 16 16 16 16 16 16 16 17 17 17 17 17 17 17 17
21 23 23 24 24 24 24 24 23 22 23 22 22 22 21 19 19 18 18 18 18 17 17 17 16 16 15 15 15 15 15 15 15 15 15 15 15 15 15 16 16 16 16 17 17 17 17 17 17
22 23 24 24 24 24 24 24 23 23 23 23 22 21 20 19 19 19 19 19 18 18 17 17 16 16 15 15 15 15 15 14 14 15 15 15 15 15 15 15 16 16 16 16 17 17 17 17 17
23 24 24 24 23 23 23 23 23 24 24 24 23 21 20 20 20 20 20 19 18 18 17 16 16 16 15 15 15 14 14 14 14 14 14 14 14 15 15 15 15 15 15 16 16 16 16 16 17
23 24 23 23 22 23 23 23 23 23 24 23 23 22 21 20 20 20 20 19 18 17 17 16 16 15 15 15 14 14 14 14 14 14 14 14 14 14 15 15 15 15 15 15 16 16 16 16 16
24 24 22 22 22 22 23 23 23 23 23 22 22 21 21 21 21 20 19 19 18 17 16 16 15 15 15 14 14 14 14 14 14 14 14 14 14 14 14 14 15 15 15 15 15 16 16 16 16
23 23 23 22 22 22 23 23 23 24 22 22 22 21 21 21 20 20 19 18 18 17 17 16 15 15 14 14 14 14 14 14 14 14 14 14 14 14 14 14 14 15 15 15 15 15 16 16 16
22 23 23 23 23 23 23 24 24 24 22 22 22 22 21 21 20 20 19 18 18 17 16 16 15 15 14 14 14 14 14 14 13 13 13 13 13 14 14 14 14 14 14 14 15 15 15 15 16
23 24 24 24 23 23 23 24 25 23 22 23 22 22 21 20 20 20 19 18 18 17 16 15 15 14 14 14 13 13 13 13 13 13 13 13 13 13 13 14 14 14 14 14 14 15 15 15 15
24 24 24 24 24 24 24 25 25 23 23 23 23 23 22 21 20 19 19 18 17 17 16 15 15 14 14 13 13 13 13 13 13 13 13 13 13 13 13 13 13 14 14 14 14 14 15 15 15
24 25 25 25 25 24 24 25 25 23 23 24 23 23 22 22 21 20 18 18 17 16 16 15 14 14 14 13 13 13 13 13 13 13 12 12 12 13 13 13 13 13 13 13 14 14 14 14 15
25 25 25 25 25 24 24 25 26 25 23 24 23 23 22 22 21 19 18 17 17 16 16 15 15 14 13 13 13 13 13 13 13 12 12 12 12 12 12 13 13 13 13 13 13 14 14 14 14
24 25 25 25 24 24 25 25 26 26 24 24 24 23 23 22 21 19 18 17 17 16 16 16 15 14 13 13 13 12 12 12 12 12 12 12 12 12 12 12 12 12 13 13 13 13 14 14 14
24 25 25 25 24 24 24 25 26 26 24 23 23 23 23 22 21 20 18 18 17 16 16 15 15 14 13 13 12 12 12 12 12 12 12 12 12 12 12 12 12 12 12 12 13 13 13 14 14
24 25 24 24 24 25 24 25 26 26 25 24 23 22 22 22 21 20 19 18 17 16 16 15 14 14 13 13 13 13 12 13 12 12 12 12 12 12 12 12 12 12 12 12 13 12 13 13 13
24 23 24 24 24 25 25 24 26 25 25 26 25 23 22 21 20 20 19 18 17 16 16 15 14 14 13 13 12 12 12 12 12 12 12 12 12 11 11 12 12 12 12 12 12 12 12 13 13
23 23 24 24 25 24 25 24 25 26 26 26 25 23 22 21 20 19 18 18 17 16 16 15 14 14 13 13 13 12 12 12 12 12 12 12 12 12 12 11 12 12 12 12 12 12 12 12 12
24 24 24 24 24 25 24 24 25 26 25 25 25 24 22 21 20 19 19 18 17 17 16 15 15 14 13 13 13 13 12 12 12 12 12 12 12 12 12 11 12 12 12 12 12 12 12 12 12
25 25 24 23 24 25 24 24 26 26 24 23 23 23 22 21 20 19 19 19 18 17 16 15 15 14 14 13 13 13 13 12 13 12 12 12 12 12 11 11 11 11 12 12 12 12 12 12 12
25 25 25 25 24 24 25 25 26 26 25 24 23 22 22 21 20 19 19 18 18 17 17 16 15 14 14 13 13 13 13 13 12 12 12 12 12 12 11 11 11 11 11 11 11 11 12 12 12
24 25 24 24 23 23 24 25 25 26 26 25 24 23 22 21 20 20 19 18 18 17 17 16 15 15 14 14 13 13 13 13 12 12 12 12 12 12 11 11 11 11 11 11 11 11 11 11 12
23 23 24 25 24 23 23 25 26 26 25 25 25 24 22 21 20 20 19 19 18 17 17 16 15 15 14 14 14 13 13 13 13 12 12 12 12 12 12 11 12 12 12 12 11 11 11 11 12
24 25 24 24 24 24 23 24 27 25 25 24 24 23 22 21 20 20 19 18 18 17 17 16 16 15 15 14 14 14 13 13 13 13 12 12 12 12 12 12 12 12 12 12 11 11 11 11 11

GEFSSGP_850_meantemp_090.txt.gz
Temperature
19 19 19 19 19 20 21 23 25 26 26 27 27 27 25 24 22 20 19 20 19 19 19 19 19 19 19 18 18 18 18 18 18 18 18 18 18 18 18 18 18 18 18 18 18 18 18 18 18
19 19 19 19 20 21 22 24 25 26 26 27 27 26 25 23 22 20 19 20 19 19 18 19 19 19 18 18 18 18 18 18 18 18 18 18 18 18 18 18 18 18 18 18 18 18 18 18 18
19 19 20 20 21 22 23 24 25 26 27 27 27 26 24 23 21 20 19 20 19 19 19 19 19 18 18 18 18 18 18 18 18 18 18 18 18 18 18 18 18 18 18 18 18 18 18 18 18
19 20 20 21 22 23 24 25 26 27 26 27 27 25 23 22 21 20 20 20 19 19 19 19 19 18 18 18 18 18 18 18 17 17 18 18 18 18 18 18 18 18 18 18 18 18 18 18 18
19 20 21 22 23 24 26 27 27 27 27 27 26 24 22 21 21 20 20 20 20 19 19 19 18 18 18 18 18 17 17 17 17 17 17 17 17 17 17 17 18 18 18 18 18 18 18 18 18
20 21 21 22 23 24 26 27 27 27 26 26 26 24 22 21 21 20 20 20 19 19 19 18 18 18 18 17 17 17 17 17 17 16 17 17 17 17 17 17 17 17 17 17 18 18 18 18 18
20 21 22 23 22 24 26 27 26 26 26 26 26 24 22 21 21 20 20 20 19 19 19 18 18 18 17 17 17 17 17 16 16 16 16 16 16 17 17 17 17 17 17 17 17 17 18 18 18
21 21 23 24 23 24 25 26 26 26 26 25 25 24 22 21 21 20 20 20 19 19 19 19 18 18 17 17 17 17 16 16 16 16 16 16 16 16 16 16 16 17 17 17 17 17 17 17 18
22 21 22 23 23 24 26 26 26 26 26 25 25 24 22 21 21 21 20 20 20 20 19 19 18 18 18 17 17 16 16 16 16 16 16 15 16 16 16 16 16 16 16 17 17 17 17 17 17
22 21 22 24 25 25 26 26 26 26 26 25 24 23 22 22 21 21 21 21 20 20 19 19 19 18 18 17 17 16 16 16 16 15 15 15 15 16 16 16 16 16 16 16 17 17 17 17 17
23 23 23 25 26 26 26 26 26 26 25 25 24 23 22 22 22 22 22 21 21 20 19 19 19 18 18 17 17 16 16 16 16 15 15 15 15 15 16 16 16 16 16 16 16 16 17 17 17
22 23 24 24 25 26 26 26 26 26 25 25 24 23 23 23 23 22 22 22 21 20 19 19 18 18 17 17 17 16 16 16 16 15 15 15 15 15 15 15 15 16 16 16 16 16 16 17 17
22 23 24 24 25 26 26 26 26 26 26 25 24 24 23 23 23 23 22 22 21 20 19 19 18 18 17 17 17 16 16 16 16 15 15 15 15 15 15 15 15 15 15 16 16 16 16 16 16
22 24 24 25 25 25 26 26 26 26 26 25 25 24 23 23 23 23 22 22 21 20 20 19 18 17 17 17 16 16 16 16 15 15 15 15 15 15 15 15 15 15 15 15 16 16 16 16 16
23 23 24 25 26 26 26 25 26 26 26 26 25 24 24 23 23 23 22 22 21 20 20 18 18 17 17 16 16 16 16 15 15 15 15 15 15 15 15 15 15 15 15 15 15 15 16 16 16
24 24 23 25 25 26 25 24 26 26 26 26 25 25 24 24 23 23 23 22 21 20 19 18 18 17 17 16 15 15 15 15 15 15 14 14 14 14 14 14 15 15 15 15 15 15 15 15 16
25 24 24 23 25 26 26 25 26 26 26 26 26 25 24 24 24 23 22 22 21 20 19 18 18 17 16 16 16 15 15 15 15 14 14 14 14 14 14 14 14 14 14 14 15 15 15 15 15
23 24 24 24 25 26 26 26 26 26 26 26 26 26 25 25 24 23 22 21 20 19 19 18 17 17 16 16 16 15 15 15 14 14 14 14 13 14 14 14 14 14 14 14 14 14 15 15 15
23 24 25 25 27 26 26 26 27 27 27 27 26 26 26 25 24 23 22 21 20 19 18 18 18 17 16 16 15 15 15 15 14 14 14 13 13 13 13 13 14 14 14 14 14 14 14 15 15
23 25 25 25 26 26 27 27 28 28 27 27 27 27 26 25 24 23 22 21 20 19 18 19 18 17 16 16 15 15 15 14 14 14 14 13 13 13 13 13 13 13 14 14 14 14 14 14 15
25 25 25 24 25 27 27 26 27 29 28 28 27 27 27 26 25 23 22 21 20 19 18 18 18 17 16 15 15 15 14 14 14 14 14 13 13 13 13 13 13 13 13 13 13 14 14 14 14
24 25 25 25 25 25 27 25 27 28 27 27 27 27 27 26 25 23 22 21 20 19 19 18 18 17 16 15 15 14 14 14 14 14 14 13 13 13 13 13 13 13 13 13 13 13 13 14 14
25 26 26 26 26 26 27 26 27 27 27 27 27 27 26 26 25 24 23 21 20 19 18 18 17 16 16 15 15 14 14 14 14 14 14 14 14 13 13 13 13 13 13 13 13 13 13 13 14
27 27 27 27 26 25 27 26 26 27 27 27 27 27 26 26 25 24 22 21 20 19 18 17 17 16 15 15 14 14 14 14 14 14 14 14 14 14 13 13 13 13 13 13 13 13 13 13 13
27 26 25 24 24 25 27 27 27 27 28 28 27 27 26 25 25 23 22 21 20 19 18 17 17 16 15 15 15 15 14 14 14 14 14 14 14 14 13 13 13 13 13 13 13 13 13 13 13
27 26 24 23 23 25 27 27 27 28 28 27 27 27 26 25 24 23 22 20 20 19 18 17 17 16 16 15 15 15 15 15 14 14 14 14 14 14 13 13 13 13 13 13 13 13 13 13 13
27 27 27 26 25 25 27 28 28 28 28 27 27 27 26 25 24 23 22 20 19 19 18 17 17 16 16 15 15 15 15 15 15 14 14 14 14 14 13 13 13 13 13 13 13 13 13 13 13
27 27 26 25 24 24 25 26 26 26 27 27 27 26 26 25 24 23 22 21 20 19 18 17 17 16 16 15 15 15 15 15 15 14 14 14 14 14 13 13 13 13 13 13 13 13 13 13 13
26 26 26 26 25 24 24 25 27 27 27 27 27 27 26 25 24 23 22 21 20 19 18 17 17 16 16 16 15 15 15 15 14 14 14 14 14 14 14 13 13 13 13 13 13 13 13 13 13
27 27 26 24 24 25 24 25 28 27 27 27 27 27 26 25 24 23 22 21 20 19 18 17 17 17 16 16 15 15 15 15 15 15 14 14 14 14 14 14 14 14 13 13 13 13 13 13 13

GEFSSGP_850_meantemp_096.txt.gz
Temperature
19 19 19 19 18 18 19 20 20 21 22 22 22 22 20 20 20 19 18 19 19 19 19 19 19 19 19 19 19 19 19 19 19 19 19 19 19 19 19 19 19 19 19 19 19 19 19 19 19
19 19 19 19 18 19 19 20 20 22 23 23 22 22 20 19 19 19 18 19 19 19 19 19 18 18 18 18 18 18 18 18 18 18 18 18 18 18 18 18 18 18 18 18 19 19 19 19 19
19 19 19 18 19 19 20 20 21 23 23 23 22 22 21 20 19 19 19 19 19 19 19 19 18 18 18 18 18 18 18 18 18 18 18 18 18 18 18 18 18 18 18 18 18 18 18 18 18
19 19 19 18 19 20 19 20 21 22 23 23 22 21 20 20 20 19 19 19 19 19 19 18 18 18 18 18 18 18 18 18 17 17 17 17 17 17 18 18 18 18 18 18 18 18 18 18 18
19 19 18 19 20 20 20 20 21 22 23 22 21 20 19 20 20 19 19 19 19 19 19 18 18 18 18 18 17 17 17 17 17 17 17 17 17 17 17 17 17 17 17 18 18 18 18 18 18
20 18 19 19 20 20 20 21 21 22 22 22 21 20 19 19 19 19 19 19 19 19 19 18 18 18 17 17 17 17 17 17 16 16 16 16 16 17 17 17 17 17 17 17 17 18 18 18 18
19 18 19 20 19 20 21 21 22 22 22 22 21 19 19 19 20 19 19 19 19 19 19 18 18 18 17 17 17 16 16 16 16 16 16 16 16 16 16 16 16 16 17 17 17 17 17 18 18
20 18 19 19 20 20 21 21 23 23 23 22 22 20 19 20 20 20 19 19 19 19 19 18 18 17 17 17 16 16 16 16 16 15 15 15 15 16 16 16 16 16 16 16 17 17 17 17 17
20 18 18 19 19 20 20 21 23 23 23 22 22 22 21 20 20 20 19 19 19 19 18 18 18 17 17 17 16 16 16 16 15 15 15 15 15 15 15 15 15 16 16 16 16 16 17 17 17
19 18 19 19 19 19 20 21 22 22 22 21 22 21 21 20 20 20 20 19 19 19 18 18 18 17 17 17 16 16 16 15 15 15 15 15 15 15 15 15 15 15 15 16 16 16 16 16 17
18 18 19 19 20 20 21 21 22 22 20 21 21 21 21 20 20 20 20 20 19 19 19 18 18 17 17 17 16 16 16 15 15 15 15 15 15 15 15 15 15 15 15 15 15 16 16 16 16
18 19 19 19 20 21 21 22 22 22 23 23 23 22 21 21 21 20 20 20 19 19 19 18 18 18 17 17 16 16 16 15 15 15 15 15 15 15 15 15 15 15 15 15 15 15 16 16 16
19 19 19 19 21 21 22 22 22 23 24 23 22 22 21 21 21 21 20 20 20 19 19 19 18 18 17 17 16 16 15 15 15 15 15 15 15 15 15 15 15 15 15 15 15 15 15 16 16
19 19 19 20 21 21 22 22 22 23 23 22 22 22 22 22 21 21 21 20 20 20 19 19 18 18 17 16 16 16 15 15 15 15 15 15 15 14 14 14 15 15 15 15 15 15 15 15 16
19 19 20 20 20 21 22 21 22 23 23 22 22 22 22 22 22 21 21 21 20 20 19 19 18 17 17 16 16 15 15 15 15 15 14 14 14 14 14 14 14 14 15 15 15 15 15 15 15
19 19 19 20 20 21 21 21 22 23 23 22 22 22 22 22 22 22 21 21 20 20 19 19 18 17 17 16 16 15 15 15 14 14 14 14 14 14 14 14 14 14 14 14 15 15 15 15 15
18 18 19 20 21 21 21 21 22 23 23 22 22 22 22 22 22 22 21 21 21 20 19 19 18 17 17 16 15 15 15 14 14 14 14 14 14 14 14 14 14 14 14 14 14 14 15 15 15
18 18 19 20 21 21 20 20 21 23 23 22 22 22 22 22 22 22 21 21 21 20 19 19 18 17 17 16 15 15 15 14 14 14 14 14 14 13 13 13 13 14 14 14 14 14 14 15 15
19 19 19 20 21 21 21 21 21 22 22 22 22 22 22 22 22 22 21 21 20 20 19 18 18 17 17 16 15 15 14 14 14 14 14 13 13 13 13 13 13 13 13 14 14 14 14 14 15
20 20 20 20 22 22 21 21 21 21 22 23 22 22 22 22 21 21 21 21 20 20 19 19 18 17 17 16 15 15 14 14 14 14 13 13 13 13 13 13 13 13 13 13 13 14 14 14 14
20 20 20 21 22 22 22 21 21 22 23 23 23 23 23 22 22 21 21 21 20 20 20 19 18 18 17 16 15 15 14 14 14 13 13 13 13 13 13 13 13 13 13 13 13 13 14 14 14
20 21 21 22 20 20 21 20 20 21 21 22 22 23 23 22 22 22 21 21 21 20 20 19 18 18 17 16 16 15 14 14 14 14 13 13 13 13 13 13 13 13 13 13 13 13 13 14 14
21 22 22 22 21 19 20 19 20 21 22 22 22 23 23 23 23 22 22 21 21 20 20 19 18 17 17 16 16 15 14 14 14 14 13 13 13 13 13 13 13 13 13 13 13 13 13 13 14
23 21 20 18 18 19 20 20 20 20 22 23 22 23 23 23 23 22 22 21 20 20 19 19 18 18 17 16 16 15 14 14 14 14 14 13 13 13 13 13 13 13 13 13 13 13 13 13 13
22 19 18 18 17 18 20 20 20 21 22 23 23 24 24 24 23 22 22 21 20 20 19 19 18 18 17 16 16 15 14 14 14 14 14 13 13 13 13 13 13 13 13 13 13 13 13 13 13
22 19 18 19 19 18 19 20 21 23 23 24 25 25 24 24 23 23 22 22 21 20 20 19 19 18 17 16 16 15 15 14 14 14 14 14 13 13 13 13 13 13 13 13 13 13 13 13 13
23 20 19 18 19 19 19 21 22 23 23 23 23 24 24 24 23 23 23 22 21 21 20 20 19 18 17 17 16 15 15 14 14 14 14 14 14 14 13 13 13 13 13 13 13 13 13 13 13
23 21 18 18 19 18 19 20 20 22 23 23 22 23 24 24 24 23 23 22 22 21 20 20 19 18 18 17 16 15 15 15 14 14 14 14 14 14 14 13 13 13 13 13 13 13 13 13 13
23 22 19 16 17 18 19 19 20 21 21 22 22 24 24 24 24 24 23 23 22 21 20 20 19 18 18 17 16 15 15 15 14 14 14 14 14 14 14 14 13 13 13 13 13 13 13 13 13
23 22 19 19 19 17 17 18 21 20 21 22 22 24 24 24 24 24 23 23 22 21 20 20 19 18 18 17 16 16 15 15 15 15 14 14 14 14 14 14 14 13 13 13 13 13 13 13 13

GEFSSGP_850_meantemp_102.txt.gz
Temperature
19 19 18 18 17 18 19 19 19 19 20 20 20 20 19 19 19 19 18 19 19 19 18 18 18 18 18 18 18 18 18 18 18 18 18 18 18 18 18 18 18 18 18 18 18 18 18 18 18
19 19 19 18 18 19 19 19 19 20 20 20 20 20 19 18 18 19 19 18 18 18 18 18 18 18 18 18 18 18 18 18 18 18 18 18 18 18 18 18 18 18 18 18 18 18 18 18 18
19 18 18 17 18 19 20 20 19 20 20 20 20 20 19 19 19 19 19 19 18 18 18 18 18 18 18 18 18 18 18 17 17 17 17 17 17 17 17 17 17 17 18 18 18 18 18 18 18
19 18 18 17 19 19 19 19 19 20 21 21 20 19 19 19 19 19 19 18 18 18 18 18 18 18 18 17 17 17 17 17 17 17 17 17 17 17 17 17 17 17 17 17 17 17 18 18 18
18 18 18 18 19 19 19 19 19 19 20 20 20 19 19 19 19 19 19 19 18 18 18 18 18 18 17 17 17 17 17 17 16 16 16 16 16 16 16 16 17 17 17 17 17 17 17 17 17
19 17 18 18 19 19 19 19 19 20 20 20 20 19 18 19 19 19 19 19 18 18 18 18 18 17 17 17 17 16 16 16 16 16 16 16 16 16 16 16 16 16 16 17 17 17 17 17 17
18 17 18 19 19 19 20 20 20 19 20 20 20 18 18 19 19 19 19 18 18 18 18 18 18 17 17 16 16 16 16 16 16 15 15 15 15 15 15 16 16 16 16 16 16 17 17 17 17
19 17 18 18 19 19 19 20 20 20 20 20 20 19 18 19 19 19 19 18 18 18 18 18 17 17 17 16 16 16 15 15 15 15 15 15 15 15 15 15 15 15 16 16 16 16 16 17 17
19 17 18 18 19 19 19 20 20 20 20 20 20 20 20 20 19 19 18 18 18 18 18 18 17 17 17 16 16 16 15 15 15 15 15 15 15 15 15 15 15 15 15 15 15 16 16 16 16
18 17 18 18 18 19 19 19 20 20 20 20 20 20 20 20 19 19 19 19 19 19 18 18 17 17 17 16 16 16 15 15 15 15 15 15 14 14 15 15 15 15 15 15 15 15 16 16 16
18 18 18 18 18 19 19 20 20 20 19 20 21 21 20 20 19 19 19 19 19 19 18 18 17 17 17 16 16 16 15 15 15 15 15 14 14 14 14 14 14 15 15 15 15 15 15 16 16
18 18 18 18 19 19 19 20 20 20 21 22 22 21 21 20 20 20 20 20 19 19 18 18 18 17 17 16 16 15 15 15 15 15 14 14 14 14 14 14 14 14 14 15 15 15 15 15 15
18 18 18 19 19 19 19 20 20 21 22 22 21 21 21 21 20 20 20 20 19 19 19 18 18 17 17 16 16 15 15 15 15 14 14 14 14 14 14 14 14 14 14 14 14 15 15 15 15
18 18 18 19 19 19 19 20 20 21 22 22 21 21 21 21 21 20 20 20 19 19 19 18 18 17 17 16 16 15 15 15 15 14 14 14 14 14 14 14 14 14 14 14 14 14 15 15 15
18 18 19 19 19 19 20 20 20 22 21 21 21 21 21 21 21 21 21 20 20 19 19 18 18 17 17 16 16 15 15 15 14 14 14 14 14 14 14 14 14 14 14 14 14 14 14 15 15
18 18 18 19 19 19 20 20 21 22 21 21 21 21 21 21 21 21 21 20 20 19 19 18 18 17 17 16 16 15 15 14 14 14 14 14 13 13 13 13 13 13 13 14 14 14 14 14 15
18 18 19 19 19 19 19 19 20 21 21 20 21 21 21 21 21 21 21 20 20 20 19 18 18 17 17 16 16 15 15 14 14 14 14 13 13 13 13 13 13 13 13 13 14 14 14 14 14
18 18 19 19 20 19 19 19 20 21 20 20 20 21 21 21 22 21 21 20 20 20 19 18 18 17 17 16 16 15 15 14 14 14 13 13 13 13 13 13 13 13 13 13 13 14 14 14 14
18 19 19 19 20 20 19 19 19 20 20 19 20 20 21 21 22 21 21 20 20 20 19 19 18 18 17 16 16 15 15 14 14 13 13 13 13 13 13 13 13 13 13 13 13 13 14 14 14
19 19 19 19 20 20 19 19 19 19 19 20 20 20 21 21 21 21 21 21 20 20 19 19 18 18 17 16 16 15 14 14 14 13 13 13 13 13 12 12 12 13 13 13 13 13 13 14 14
19 19 20 20 20 19 20 20 20 20 20 21 21 21 21 21 22 21 21 21 20 20 20 19 19 18 17 16 16 15 14 14 14 13 13 13 13 12 12 12 12 12 12 13 13 13 13 13 14
19 20 20 20 19 18 19 19 19 18 19 20 20 21 21 22 22 22 21 21 21 21 20 19 19 18 17 16 16 15 15 14 14 13 13 13 13 13 12 12 12 12 12 12 13 13 13 13 13
19 19 19 19 19 18 18 18 18 18 20 20 20 21 22 23 22 22 22 22 21 21 20 19 19 18 17 17 16 15 15 14 14 13 13 13 13 13 13 12 12 12 12 12 12 13 13 13 13
20 19 18 16 16 18 18 18 19 18 20 20 20 22 23 23 23 22 22 21 21 20 20 19 19 18 17 17 16 15 15 14 14 14 13 13 13 13 13 13 12 12 12 12 12 13 13 13 13
19 18 17 18 17 18 18 18 18 19 19 19 20 22 23 23 23 23 22 22 21 21 20 19 19 18 18 17 16 16 15 14 14 14 13 13 13 13 13 13 13 12 12 12 12 12 13 13 13
19 18 17 18 18 17 17 18 19 19 20 21 21 22 23 23 23 23 23 22 22 21 21 20 19 19 18 17 17 16 15 15 14 14 14 13 13 13 13 13 13 12 12 12 12 12 13 13 13
19 17 17 16 17 17 17 18 19 20 20 20 21 21 22 23 23 23 23 22 22 21 21 20 20 19 18 18 17 16 15 15 14 14 14 14 13 13 13 13 13 13 12 12 12 12 12 12 12
19 16 15 16 17 17 18 18 18 20 19 19 18 20 21 22 22 23 23 22 22 21 21 20 19 19 18 18 17 16 16 15 14 14 14 14 13 13 13 13 13 13 13 13 13 12 12 12 12
20 18 15 14 15 16 18 18 18 18 18 17 17 19 20 21 22 22 22 22 22 21 20 20 19 19 18 18 17 17 16 15 15 14 14 14 14 13 13 13 13 13 13 13 13 13 13 13 13
21 19 16 17 16 15 16 17 18 17 16 17 17 18 20 20 21 21 21 21 21 21 20 20 19 19 19 18 17 17 16 16 15 15 14 14 14 14 13 13 13 13 13 13 13 13 13 13 13

GEFSSGP_850_meantemp_108.txt.gz
Temperature
19 19 19 19 22 23 23 23 24 23 24 23 23 24 24 23 23 22 18 18 18 18 17 18 18 18 18 18 18 18 18 18 18 18 18 18 18 18 18 18 18 18 18 18 18 18 18 18 18
19 19 19 21 23 24 23 23 23 24 23 23 23 23 24 22 21 19 18 18 18 18 17 17 18 18 18 18 18 18 18 17 17 17 17 17 17 17 17 17 17 18 18 18 18 18 18 18 18
19 19 20 23 24 24 23 23 24 23 23 23 23 23 23 21 20 19 18 18 18 17 17 17 18 18 18 18 17 17 17 17 17 17 17 17 17 17 17 17 17 17 17 17 17 17 17 18 18
19 19 21 24 24 24 23 24 24 24 23 23 24 23 22 20 20 19 18 18 18 17 17 17 18 17 17 17 17 17 17 17 17 17 17 16 16 17 17 17 17 17 17 17 17 17 17 17 18
19 21 23 24 24 24 24 23 23 24 24 24 24 23 21 19 19 19 18 18 18 18 17 17 18 17 17 17 17 17 16 16 16 16 16 16 16 16 16 16 16 16 16 17 17 17 17 17 17
20 22 23 24 24 24 24 23 24 24 24 23 23 23 21 19 19 18 18 18 18 18 17 17 17 17 17 17 16 16 16 16 16 16 16 16 16 16 16 16 16 16 16 16 16 17 17 17 17
21 23 23 24 23 23 24 23 24 24 24 23 23 23 20 19 19 18 18 18 18 18 17 17 17 16 16 16 16 16 16 16 16 15 15 15 15 15 15 16 16 16 16 16 16 16 16 17 17
20 23 23 24 23 23 23 23 23 23 23 22 22 23 21 20 19 18 18 18 18 18 17 17 17 17 16 16 16 16 16 15 15 15 15 15 15 15 15 15 15 15 15 16 16 16 16 16 17
20 23 23 23 23 23 23 23 23 22 23 22 22 22 21 19 19 18 18 18 18 18 18 17 17 17 16 16 16 15 15 15 15 15 15 15 15 15 15 15 15 15 15 15 15 16 16 16 16
21 23 23 23 23 23 23 23 23 23 23 23 22 21 20 19 19 19 19 19 19 19 18 18 17 17 17 16 16 15 15 15 15 15 15 15 15 15 15 15 15 15 15 15 15 15 16 16 16
22 23 23 23 22 22 23 23 23 24 24 24 23 21 20 20 20 20 20 20 20 19 18 18 18 17 17 16 16 16 15 15 15 15 14 14 14 15 15 15 15 15 15 15 15 15 15 15 16
22 22 22 22 21 22 23 23 23 24 24 23 23 22 21 20 20 20 20 20 19 19 18 18 18 17 17 16 16 16 16 15 15 15 14 14 14 14 15 14 14 14 14 14 14 15 15 15 16
22 22 21 21 21 22 22 23 23 23 23 22 22 21 21 21 21 21 21 20 20 19 18 18 17 17 17 16 16 16 15 15 15 14 14 14 14 14 14 14 14 14 14 14 14 15 15 15 15
22 22 22 22 22 22 23 23 23 24 23 23 22 22 22 22 21 21 21 20 20 19 19 18 18 17 17 16 16 16 15 15 15 14 14 14 14 14 14 14 14 14 14 14 14 14 14 15 15
21 22 22 22 22 22 23 24 24 24 23 23 23 23 22 22 21 21 21 20 20 20 19 18 18 17 17 16 16 16 15 15 15 14 14 14 14 14 14 14 14 14 14 14 14 14 14 14 15
23 23 23 23 23 22 23 24 25 23 23 24 23 23 22 22 22 21 21 21 20 20 19 19 18 18 17 16 16 16 15 15 14 14 14 14 14 14 13 13 13 13 13 13 14 14 14 14 15
23 23 23 23 23 23 24 24 25 23 24 24 24 24 23 23 22 21 21 20 20 20 19 19 18 18 17 17 16 16 15 15 14 14 14 13 13 13 13 13 13 13 13 13 13 14 14 14 14
23 24 24 24 24 24 24 25 25 24 24 25 24 24 24 23 23 22 21 20 20 20 19 19 18 18 17 17 16 16 15 14 14 14 13 13 13 13 13 13 13 13 13 13 13 13 13 14 14
24 24 24 24 24 24 24 25 26 25 24 25 25 24 24 24 23 22 21 20 20 20 20 19 19 18 18 17 16 15 15 14 14 14 13 13 13 13 13 13 13 13 13 13 13 13 13 14 14
24 24 24 24 24 24 25 25 26 25 25 24 25 25 24 23 23 21 21 20 20 20 20 19 19 18 18 17 16 16 15 14 14 14 13 13 13 13 13 13 13 13 13 13 13 13 13 14 14
24 24 24 24 24 25 25 25 26 26 25 24 24 24 24 23 23 22 21 20 20 20 20 19 19 18 18 17 17 16 15 15 14 14 13 13 13 13 12 13 13 13 13 13 13 13 13 13 14
23 24 24 24 25 25 26 25 25 26 26 25 24 24 23 22 22 22 21 20 20 20 20 19 19 18 18 17 17 16 15 15 14 14 14 13 13 13 13 12 12 13 13 13 13 13 13 13 13
23 23 24 25 26 26 26 26 25 26 25 25 24 23 23 22 22 21 21 20 20 20 20 19 19 19 18 18 17 16 16 15 15 14 14 13 13 13 13 12 12 13 13 13 13 13 13 13 13
23 24 24 25 26 25 25 26 25 25 25 25 24 23 22 22 21 21 21 21 21 21 20 20 19 19 18 18 17 16 16 15 15 14 14 14 14 13 13 13 13 13 13 12 13 13 13 13 13
24 24 24 24 24 24 24 25 24 24 24 24 23 23 22 21 21 21 21 21 21 21 20 20 20 19 19 18 17 17 16 15 15 14 14 14 14 14 13 13 13 13 13 13 13 13 13 13 13
24 25 25 24 24 24 25 25 25 24 23 22 22 22 21 21 20 20 20 20 20 20 20 20 20 19 19 18 17 17 16 16 15 15 14 14 14 14 13 13 13 13 13 13 13 13 13 13 13
24 25 25 26 25 25 25 25 25 24 24 23 22 21 21 20 20 20 20 20 20 20 20 20 20 19 19 18 18 17 16 16 15 15 15 14 14 14 13 13 13 13 13 13 13 13 13 13 13
25 25 25 26 24 24 24 24 24 24 23 23 22 21 20 19 19 19 19 20 20 20 20 20 20 19 19 18 18 17 17 16 16 15 15 14 14 14 14 13 13 13 13 13 13 13 13 13 13
24 24 25 25 25 25 24 24 24 23 23 22 22 20 19 19 18 18 19 19 19 20 20 20 19 19 19 18 18 17 17 17 16 16 15 15 14 14 14 14 14 13 13 13 13 13 13 13 13
25 25 25 25 24 25 25 24 22 22 21 21 20 19 18 18 18 18 18 19 19 19 19 19 19 19 19 18 18 17 17 17 16 16 15 15 15 14 14 14 14 14 13 13 13 13 13 13 13

GEFSSGP_850_meantemp_114.txt.gz
Temperature
20 19 19 19 20 21 22 23 24 25 26 26 26 26 25 23 22 20 19 20 19 18 18 18 18 18 18 18 18 18 18 18 18 18 18 18 18 18 18 18 18 18 18 18 18 18 18 18 18
20 19 20 20 21 22 22 23 24 25 26 26 26 26 24 23 21 20 19 19 19 18 18 18 18 18 18 18 18 18 18 18 17 17 17 17 17 17 17 17 18 17 18 18 18 18 18 18 18
20 20 20 21 22 22 22 24 25 26 26 26 26 25 24 23 21 20 19 19 19 18 18 18 18 18 18 18 18 18 17 17 17 17 17 17 17 17 17 17 17 17 17 17 17 18 18 18 18
20 20 21 22 23 24 24 25 26 26 26 26 26 24 23 22 21 20 20 20 19 18 18 18 18 18 18 18 17 17 17 17 17 17 17 17 17 17 17 17 17 17 17 17 17 17 17 17 18
20 21 22 23 24 25 25 26 27 26 26 26 25 23 22 21 20 20 20 20 19 18 18 18 18 18 18 17 17 17 17 16 16 16 17 17 17 17 17 17 17 17 17 17 17 17 17 17 18
20 22 22 22 24 25 26 26 26 26 26 26 25 23 21 21 20 20 20 20 19 19 19 19 18 18 18 17 17 17 17 16 16 16 16 16 17 16 16 16 16 16 16 16 16 17 17 17 17
21 21 22 23 23 24 26 26 26 25 26 26 25 23 21 21 20 21 20 20 20 19 19 18 18 18 18 17 17 17 17 16 16 16 16 16 16 16 16 16 16 16 16 16 16 16 17 17 17
21 22 23 23 23 23 25 26 26 25 25 25 25 23 21 21 21 20 20 20 20 20 19 19 18 18 18 18 17 17 17 16 16 16 16 16 16 16 16 16 16 16 16 16 16 16 16 17 17
22 22 22 22 23 24 25 26 26 25 25 25 24 23 22 21 21 20 20 20 20 20 20 19 19 18 18 18 18 17 17 17 16 16 16 16 16 16 16 16 16 16 16 16 16 16 16 16 17
23 22 22 24 24 24 25 26 26 26 25 24 23 22 21 21 21 21 21 21 20 20 20 20 20 19 19 19 18 17 17 17 17 16 16 16 16 16 16 16 16 16 16 16 16 16 16 16 17
24 23 24 25 25 25 25 25 26 25 24 24 23 22 22 21 21 22 22 21 21 21 20 20 20 20 19 19 18 18 17 17 17 17 16 16 16 16 16 16 16 16 16 16 15 16 16 16 16
24 24 25 25 24 25 25 25 26 25 25 25 24 23 22 22 22 22 22 22 21 21 20 20 20 20 19 19 18 18 18 17 17 17 16 16 16 16 16 16 16 16 16 16 15 16 16 16 16
24 24 25 25 25 25 25 25 25 25 25 25 24 23 23 23 22 23 22 22 21 21 20 20 20 20 19 19 19 18 18 18 17 17 16 16 16 16 16 16 16 16 15 15 15 16 16 16 16
24 24 25 25 25 25 25 25 26 25 25 25 24 24 23 23 23 23 23 22 22 21 21 20 20 20 19 19 19 18 18 18 17 17 16 16 16 16 16 15 15 15 15 15 15 15 15 16 16
24 24 25 25 25 25 25 25 26 25 25 25 25 24 24 24 23 23 23 23 22 22 21 20 20 19 19 19 18 18 18 17 17 16 16 16 16 16 15 15 15 15 15 15 15 15 15 15 15
24 24 23 25 25 25 24 22 25 26 26 25 25 25 24 24 24 24 23 23 22 22 21 20 20 19 19 18 18 18 17 17 16 16 16 16 16 15 15 15 15 15 15 15 15 15 15 15 15
23 23 23 24 25 26 24 23 25 26 26 25 25 25 24 24 24 24 23 23 23 22 21 21 20 19 19 18 18 17 17 17 16 16 15 15 15 15 15 15 15 15 14 14 14 14 15 15 15
23 23 23 24 25 25 24 24 25 26 26 26 26 25 25 25 24 24 24 23 22 22 21 21 20 19 19 18 18 17 17 17 16 16 15 15 15 14 15 14 14 14 14 14 14 14 14 15 15
25 24 24 24 26 25 24 24 25 26 26 26 26 25 25 25 24 24 23 23 22 22 21 21 20 19 19 18 18 17 17 17 16 16 15 15 15 14 14 14 14 14 14 14 14 14 14 15 15
24 24 23 25 26 26 25 25 25 26 26 26 26 26 25 25 24 24 23 23 22 22 21 21 20 20 19 18 18 17 17 17 16 16 15 15 15 14 14 14 14 14 14 14 14 14 14 14 15
24 24 24 25 26 26 25 24 25 26 26 26 26 26 25 25 24 23 23 23 22 22 21 21 20 20 19 18 18 17 17 17 16 16 16 15 15 14 14 14 14 14 14 14 14 14 14 14 14
24 25 25 26 25 24 25 22 24 25 25 25 25 25 25 25 24 23 23 22 22 21 21 21 20 20 19 19 18 17 17 17 16 16 16 15 15 15 14 14 14 14 14 14 14 14 14 14 14
24 26 26 26 25 25 25 24 24 25 24 24 25 25 24 24 24 23 23 22 22 21 21 20 20 20 19 19 18 18 17 17 16 16 16 16 15 15 15 14 14 14 14 14 14 14 14 14 14
26 26 26 26 25 24 25 24 24 25 25 25 25 24 24 23 23 22 22 22 21 21 20 20 20 19 19 19 18 18 17 17 17 16 16 16 16 15 15 15 14 14 14 14 14 14 14 14 14
26 25 23 23 23 24 26 25 24 25 26 25 25 24 23 23 22 22 21 21 21 20 20 20 19 19 19 19 18 18 17 17 17 17 16 16 16 16 15 15 15 14 14 14 14 14 14 14 14
25 25 23 22 22 24 26 24 24 25 25 25 24 24 23 22 22 21 21 20 20 20 20 19 19 19 19 18 18 18 18 17 17 17 17 16 16 16 16 15 15 15 14 14 14 14 14 14 14
25 24 24 23 23 25 25 24 25 25 25 25 24 23 23 22 21 21 20 20 20 19 19 19 19 19 19 18 18 18 18 17 17 17 17 16 16 16 16 15 15 15 15 14 14 14 14 14 14
25 25 24 23 23 24 24 24 23 24 24 24 24 23 22 22 21 20 20 20 19 19 19 19 19 19 18 18 18 18 17 17 17 17 17 16 16 16 16 16 15 15 15 15 14 14 14 14 14
25 25 25 25 25 25 24 24 26 25 24 24 23 23 22 21 20 20 19 19 19 19 19 19 19 18 18 18 18 18 17 17 17 17 17 16 16 16 16 16 16 15 15 15 15 15 14 14 14
27 26 26 25 26 26 25 23 26 25 25 24 23 22 21 20 20 19 19 19 19 19 19 19 18 18 18 18 17 17 17 17 17 17 16 16 16 16 16 16 16 16 15 15 15 15 14 14 14